Temperature
11 11 12 12 12 12 12 12 12 12 12 12 12 12 12 12 12 13 13 13 13 13 13 13 14 14 14 14 14 14 14 14 14 13 13 13 13 13 13 13 13 13 13
10 11 11 11 11 12 12 12 12 12 12 12 12 12 12 12 12 12 12 13 13 13 13 13 13 14 14 14 14 14 14 13 13 13 13 13 13 13 13 13 13 13 13
9 10 11 11 11 11 11 11 12 12 12 12 12 12 12 12 12 12 12 12 12 13 13 13 13 13 13 14 14 14 14 13 13 13 13 13 13 13 13 13 13 12 12
9 9 10 10 11 11 11 11 11 11 11 12 11 11 11 11 12 12 12 12 12 12 12 12 12 13 13 13 14 14 14 14 13 13 13 13 13 13 12 12 12 12 12
8 9 9 10 10 10 10 11 11 11 11 11 11 11 11 11 11 11 11 12 12 12 12 12 12 12 13 13 13 13 13 13 13 13 13 13 13 13 13 12 12 12 12
7 8 9 9 9 10 10 10 10 10 11 11 11 11 11 11 11 11 11 11 11 12 12 12 12 12 12 13 13 13 13 13 13 13 13 13 12 12 13 13 12 12 11
7 7 8 8 9 9 10 10 10 10 10 10 10 10 10 10 11 11 11 11 11 11 11 11 12 12 12 12 12 12 12 12 12 12 12 12 12 12 12 12 12 11 11
6 6 7 7 8 9 9 9 9 10 10 10 10 10 10 10 10 11 11 11 11 11 11 11 11 11 12 12 12 11 12 12 12 12 12 12 12 12 12 12 11 11 10
5 5 6 7 7 8 8 8 9 9 9 9 9 9 10 10 10 10 10 11 11 11 11 11 11 11 11 11 11 11 11 11 11 11 11 11 11 11 11 11 11 11 10
5 5 5 6 7 7 8 8 8 9 9 9 9 9 9 9 10 10 10 10 10 10 10 10 11 11 11 11 11 11 11 11 11 11 11 11 11 11 11 11 10 10 10
4 4 5 5 6 6 7 8 8 8 8 8 8 9 9 9 9 9 9 10 10 10 10 10 10 10 10 10 10 10 10 10 10 10 10 10 10 10 10 10 10 10 9
4 4 4 5 5 6 6 7 7 7 8 8 8 8 8 8 9 9 9 9 9 9 9 10 10 10 10 10 10 10 10 10 10 10 9 9 9 9 9 9 9 9 9
4 4 4 4 5 5 6 6 6 7 7 7 7 7 8 8 8 8 8 8 9 9 9 9 9 9 9 9 9 9 9 9 9 9 9 9 9 9 9 9 9 9 8
3 4 4 4 4 5 5 5 6 6 6 6 7 7 7 7 7 7 7 8 8 8 8 8 8 8 8 8 8 8 8 8 8 8 8 8 8 8 8 8 8 8 8
3 3 3 4 4 4 4 5 5 5 5 5 6 6 6 6 6 6 7 7 7 7 7 7 7 7 7 7 7 7 8 8 8 8 8 8 8 8 7 8 8 7 7
3 3 3 3 3 3 4 4 4 4 4 4 5 5 5 5 5 5 6 6 6 6 6 6 7 7 7 7 7 7 7 7 7 7 7 7 7 7 7 7 7 7 6
3 3 3 3 3 3 3 3 3 3 4 4 4 4 4 4 4 4 4 5 5 5 5 5 6 6 6 6 6 6 6 6 6 6 6 6 6 6 6 6 6 6 6
3 3 3 3 3 3 3 3 3 3 3 3 3 3 3 3 3 3 3 3 3 4 4 4 4 5 5 5 5 5 5 5 5 5 6 5 6 6 6 6 5 5 5
3 2 2 2 2 2 2 2 2 2 2 2 2 2 2 2 2 2 2 2 2 3 3 3 3 3 4 4 4 4 4 4 5 5 5 5 5 5 5 5 5 4 4
2 2 2 2 2 1 1 1 1 1 1 1 1 1 1 1 1 1 1 1 1 2 2 2 2 2 2 3 3 3 3 3 3 4 4 4 4 4 4 4 4 4 4
2 1 1 1 1 1 1 1 1 0 0 0 0 0 0 0 0 0 0 0 0 1 1 1 1 1 1 1 2 2 2 2 2 2 3 3 3 3 3 3 3 3 3
1 1 1 0 0 -0 -0 -0 -0 -1 -1 -1 -1 -1 -1 -1 -1 -1 -1 -1 -1 -1 -0 -0 0 0 0 1 1 1 1 1 1 2 2 2 2 2 2 2 2 2 2
1 0 0 -0 -0 -1 -1 -1 -1 -2 -2 -2 -1 -2 -2 -2 -2 -2 -2 -2 -2 -2 -2 -2 -1 -1 -1 -1 -0 -0 0 0 0 1 1 1 1 1 1 1 1 1 1
0 -0 -1 -1 -1 -1 -2 -2 -2 -2 -2 -2 -2 -2 -2 -2 -2 -3 -3 -3 -3 -3 -3 -3 -3 -2 -2 -2 -1 -1 -1 -1 -1 -0 0 0 1 1 1 1 0 1 1
-1 -1 -1 -2 -2 -2 -2 -2 -3 -3 -3 -3 -3 -3 -4 -4 -4 -4 -4 -4 -4 -4 -4 -4 -4 -3 -3 -3 -3 -2 -2 -2 -1 -1 -1 -1 -0 -0 -0 -0 -0 0 -0
-1 -2 -2 -2 -2 -3 -3 -3 -4 -4 -4 -4 -4 -4 -4 -4 -5 -5 -4 -4 -5 -5 -5 -5 -4 -4 -4 -3 -3 -3 -3 -2 -2 -2 -2 -1 -1 -1 -0 -0 -0 -0 -0
Wind_Speed
10 8 7 7 6 5 6 6 6 6 6 5 6 6 7 6 6 6 8 11 11 13 10 9 10 10 10 10 9 6 6 4 4 4 2 1 0 2 3 3 4 4 7
6 5 4 4 6 6 6 6 7 6 6 6 5 4 4 5 5 6 8 10 11 11 10 10 10 10 9 9 9 6 5 4 5 4 3 1 1 1 1 2 4 4 5
5 4 2 3 4 5 5 5 6 6 7 7 5 4 3 3 5 6 7 9 10 10 9 9 9 9 9 10 10 9 9 6 5 4 5 4 5 2 1 2 3 4 4
4 3 1 1 2 3 3 3 4 4 5 7 7 7 6 6 6 7 7 8 9 10 9 9 9 9 8 9 10 9 7 8 7 4 3 3 4 4 2 1 1 3 4
5 4 3 1 1 0 1 1 2 2 3 4 6 6 5 5 4 4 7 8 8 9 9 9 9 9 8 9 10 9 8 7 7 6 4 3 2 2 4 3 2 1 2
7 7 6 5 4 3 3 2 2 2 2 3 3 4 5 4 5 6 7 7 6 6 9 9 9 9 8 9 9 10 10 8 8 6 5 5 4 4 4 4 3 3 2
9 10 10 8 7 6 4 3 3 3 2 2 2 2 4 4 5 6 7 7 6 5 8 8 9 8 8 8 8 9 9 9 9 8 6 5 5 4 4 4 3 3 2
11 11 10 9 8 7 6 5 5 5 4 3 1 0 1 2 2 4 5 6 6 6 7 8 8 8 8 7 7 7 7 7 8 9 8 5 5 5 5 5 5 4 2
11 11 11 11 10 10 9 8 7 7 6 5 4 3 2 0 2 2 2 3 4 4 5 6 7 7 7 7 8 7 7 7 7 8 8 6 5 5 4 5 5 6 6
11 12 11 11 11 11 10 10 9 8 6 5 4 4 4 3 2 2 1 1 2 2 4 5 6 6 7 7 7 6 7 8 7 6 8 7 5 5 5 5 4 5 5
11 11 10 11 11 12 12 11 10 10 10 8 6 6 5 5 4 4 3 1 0 1 3 4 5 5 6 7 7 8 8 9 8 7 8 8 7 7 6 5 5 5 4
9 9 9 10 11 11 12 12 11 11 10 9 8 7 6 6 6 5 4 3 1 0 2 3 4 5 6 6 7 8 9 10 10 9 9 9 7 8 7 7 7 6 5
8 9 9 10 10 10 10 10 10 10 10 9 8 8 8 7 6 6 5 4 3 2 1 1 3 4 5 5 6 7 8 9 9 9 10 10 10 10 8 8 7 6 5
7 7 8 9 9 9 9 9 10 10 9 9 9 9 9 8 7 6 5 5 4 3 3 2 2 3 3 5 5 6 6 7 8 8 9 9 11 11 10 9 8 7 6
7 7 7 7 8 9 9 9 9 9 9 9 9 9 8 8 8 7 6 6 5 5 4 3 3 2 3 3 4 5 5 7 7 7 8 9 10 12 11 9 9 10 8
5 6 7 7 8 8 7 8 8 8 7 8 8 8 8 8 8 8 7 7 7 6 5 5 3 3 3 4 5 4 5 5 7 7 6 7 9 11 13 13 14 13 11
4 5 5 6 6 6 6 6 6 7 7 7 8 8 8 8 8 7 7 7 6 6 6 6 5 4 5 5 6 5 4 5 6 7 6 5 6 9 8 10 12 12 13
3 4 4 5 5 5 6 6 6 6 7 7 8 8 8 7 7 7 7 6 5 5 5 6 6 6 6 7 6 6 4 4 5 6 7 7 7 8 9 8 7 7 7
1 2 3 3 4 5 5 5 6 6 7 7 7 7 7 7 7 7 7 6 5 6 5 6 6 7 7 8 8 6 3 4 5 6 7 8 8 12 13 10 8 6 4
1 2 3 3 4 5 5 5 6 6 7 7 7 7 6 7 7 7 6 5 5 6 6 7 6 7 7 9 9 6 3 4 4 4 6 10 11 14 15 11 10 10 7
2 2 3 3 4 5 5 5 6 6 7 7 6 7 7 7 7 6 6 6 6 6 6 7 7 7 8 9 10 8 4 4 4 5 5 7 13 15 16 14 10 11 10
3 3 3 4 5 5 5 6 7 7 7 7 7 7 7 7 7 7 7 7 6 7 7 6 7 5 6 8 9 10 8 7 5 5 5 6 12 14 16 13 12 14 12
3 3 3 5 5 5 5 6 8 7 7 7 8 8 8 7 7 6 7 7 6 6 6 6 6 6 5 6 11 11 10 9 6 5 7 9 12 13 11 13 15 13 8
3 3 4 5 6 6 6 6 8 8 7 8 9 8 8 8 7 6 6 6 6 6 7 7 7 7 5 5 5 5 6 7 6 5 6 10 12 10 9 10 10 8 8
3 3 4 6 7 7 7 7 7 7 7 8 8 8 8 8 8 7 7 7 7 8 9 8 7 8 8 8 11 8 6 4 5 4 3 3 4 6 6 5 6 7 8
4 4 5 6 7 7 8 8 7 7 8 8 8 7 7 7 8 8 9 11 12 16 17 15 13 11 14 16 16 15 13 13 11 6 4 6 6 7 8 8 7 7 8
Wind_Direction
269 260 233 205 195 195 188 191 194 192 179 176 189 197 197 194 197 199 192 187 187 187 185 185 182 181 186 190 185 174 173 171 150 126 110 18 33 172 179 164 157 156 161
286 271 226 201 191 193 191 196 198 193 186 183 185 195 187 184 196 202 197 194 190 188 189 188 186 186 185 184 182 170 168 171 165 149 138 170 301 272 199 177 169 162 144
290 294 254 218 202 199 198 208 198 197 191 184 174 176 176 174 194 203 201 196 192 190 189 192 189 189 189 191 188 184 177 179 187 175 160 167 204 208 224 204 176 161 147
340 334 296 238 230 226 200 200 197 200 191 182 180 180 186 195 204 203 202 196 190 189 191 196 195 192 194 196 194 191 185 175 187 190 190 175 156 163 181 227 174 159 158
3 5 359 355 4 128 126 148 160 168 171 180 184 177 187 200 197 194 200 200 194 191 193 199 201 202 202 200 198 195 191 186 187 181 171 167 152 157 160 188 191 169 179
21 21 17 27 27 30 46 69 112 113 130 160 175 181 183 187 190 191 203 201 196 194 194 195 200 203 204 205 204 201 199 197 190 185 177 172 171 184 171 178 182 186 191
28 29 27 26 24 30 38 55 74 75 78 121 149 191 194 190 200 199 200 196 194 196 196 194 197 198 200 202 199 198 200 196 192 192 194 190 186 165 161 160 163 171 178
33 32 28 27 27 30 39 50 54 46 39 47 59 147 202 202 212 211 195 191 196 196 194 191 194 196 192 192 195 195 197 196 196 196 187 185 186 177 172 165 157 161 185
30 30 29 29 28 32 35 39 45 38 28 27 24 27 13 295 221 183 183 189 190 190 189 194 194 197 195 195 194 197 194 193 198 195 188 182 185 180 177 165 166 168 189
29 29 29 27 27 29 30 33 35 33 25 27 32 26 16 16 28 55 151 190 179 178 188 197 201 200 199 197 195 194 194 194 199 193 188 188 183 175 176 173 169 172 177
30 28 26 25 25 24 26 29 27 27 23 22 26 24 14 21 35 39 21 19 70 184 205 207 204 204 206 204 203 204 196 198 200 195 192 194 182 180 180 174 171 173 166
31 29 26 25 26 25 25 25 23 24 19 17 23 20 14 20 26 22 16 16 3 261 220 215 211 211 213 210 209 209 203 202 202 201 197 196 189 187 180 180 181 179 169
33 29 27 26 24 23 22 22 21 19 17 18 22 23 19 20 18 12 9 12 6 350 323 244 227 219 217 218 218 215 209 207 208 205 203 198 189 195 187 183 180 173 164
31 28 24 20 19 20 20 19 18 17 17 17 21 22 16 13 10 8 8 6 2 353 335 296 259 242 230 222 220 218 212 209 210 209 207 202 198 198 189 186 181 169 166
27 24 21 16 15 16 17 17 16 13 15 18 20 15 9 9 9 7 2 360 1 352 338 318 301 277 248 235 229 222 216 212 212 211 210 207 202 195 191 187 181 175 175
16 15 14 13 11 10 10 10 8 6 12 17 12 6 5 5 4 1 358 358 355 350 347 334 307 288 279 276 258 239 223 215 211 211 208 204 197 195 195 192 186 182 179
360 5 2 358 355 356 360 1 357 0 10 9 5 3 2 360 355 354 357 353 348 344 337 331 319 303 291 283 270 255 239 222 213 206 199 199 199 190 186 188 187 191 193
357 351 348 347 345 348 353 352 355 -0 3 0 358 355 353 349 346 348 346 341 336 331 324 318 315 304 294 289 278 268 249 231 218 208 201 197 193 189 179 172 172 178 189
307 310 321 329 338 342 343 350 353 352 354 350 345 342 342 340 341 341 335 329 328 324 315 308 306 300 294 291 283 272 244 237 229 217 206 198 197 196 184 174 173 174 182
331 326 333 344 341 332 336 347 340 342 338 332 329 330 333 334 331 326 320 317 315 310 311 307 304 298 291 289 282 269 242 240 236 226 217 210 205 200 193 184 181 188 189
324 336 343 337 324 325 336 334 329 323 315 315 319 324 325 322 318 317 315 316 314 311 306 300 296 290 287 290 282 269 251 236 236 230 222 218 212 208 203 198 195 196 176
331 334 333 323 321 327 334 327 319 312 315 317 318 317 316 316 319 316 315 314 313 310 306 302 299 289 287 287 281 272 266 255 239 236 227 219 214 212 209 205 200 190 173
307 315 316 315 318 322 324 316 312 314 317 317 313 309 308 307 306 305 306 308 306 303 302 298 297 296 290 289 288 282 274 266 260 244 235 226 217 212 211 206 196 186 171
300 308 314 316 315 316 314 304 309 315 315 312 309 308 307 306 304 300 297 297 298 297 297 297 295 294 286 280 279 274 273 267 265 255 242 235 222 210 204 200 195 182 175
299 306 305 304 305 310 309 307 309 313 308 304 304 305 304 302 302 298 291 292 282 284 290 288 288 291 289 283 282 278 270 264 257 257 243 226 210 201 196 189 183 176 175
304 307 305 303 304 308 307 308 311 311 307 306 304 302 300 299 298 299 299 293 291 294 291 286 286 286 285 290 288 284 278 274 264 255 230 224 219 208 199 195 192 188 186
Height
1442 1443 1444 1446 1447 1450 1451 1453 1455 1457 1459 1462 1464 1466 1469 1471 1475 1478 1481 1485 1489 1493 1496 1500 1504 1508 1511 1514 1518 1521 1524 1527 1530 1532 1534 1535 1536 1537 1538 1538 1538 1539 1539
1439 1439 1440 1441 1443 1445 1447 1450 1451 1453 1455 1457 1460 1462 1465 1467 1471 1474 1478 1481 1484 1488 1491 1495 1499 1503 1506 1510 1513 1516 1519 1522 1525 1527 1529 1531 1533 1532 1533 1534 1535 1536 1536
1436 1436 1437 1438 1440 1442 1444 1446 1447 1449 1451 1453 1456 1459 1460 1463 1467 1470 1473 1476 1479 1483 1486 1490 1494 1498 1501 1504 1507 1511 1514 1516 1520 1522 1524 1525 1526 1528 1529 1530 1531 1532 1532
1435 1434 1435 1436 1437 1438 1440 1442 1444 1446 1448 1450 1452 1454 1456 1459 1462 1465 1468 1471 1474 1478 1481 1486 1489 1493 1496 1499 1502 1506 1509 1511 1514 1516 1518 1520 1521 1523 1524 1526 1526 1528 1528
1434 1434 1434 1434 1435 1435 1437 1438 1441 1443 1445 1447 1449 1451 1453 1456 1459 1461 1463 1466 1469 1473 1477 1481 1484 1488 1491 1494 1497 1500 1503 1505 1508 1510 1512 1514 1516 1517 1518 1520 1521 1523 1524
1436 1434 1434 1433 1434 1434 1435 1437 1439 1441 1442 1444 1446 1448 1449 1452 1455 1457 1459 1461 1465 1468 1472 1475 1479 1482 1485 1488 1491 1494 1497 1499 1502 1504 1506 1508 1510 1511 1513 1514 1516 1518 1520
1437 1436 1435 1434 1434 1434 1435 1436 1438 1439 1441 1442 1443 1445 1447 1449 1451 1453 1455 1457 1460 1463 1467 1470 1473 1476 1479 1482 1485 1488 1491 1493 1495 1498 1500 1503 1505 1507 1509 1510 1511 1513 1515
1442 1440 1438 1437 1436 1436 1436 1436 1437 1438 1439 1440 1441 1443 1444 1446 1448 1450 1451 1453 1456 1459 1462 1465 1468 1471 1473 1476 1479 1482 1484 1487 1490 1492 1494 1497 1499 1501 1503 1505 1506 1508 1510
1446 1443 1441 1440 1438 1437 1437 1438 1438 1439 1439 1439 1441 1441 1442 1444 1445 1446 1448 1450 1452 1455 1458 1461 1463 1466 1468 1471 1473 1476 1478 1481 1484 1486 1488 1490 1493 1495 1497 1499 1501 1503 1503
1449 1447 1445 1443 1442 1440 1440 1439 1440 1440 1440 1440 1440 1440 1441 1441 1442 1443 1445 1447 1449 1451 1453 1456 1459 1461 1463 1466 1468 1470 1472 1474 1477 1479 1482 1484 1486 1488 1490 1492 1494 1496 1497
1454 1452 1450 1447 1445 1443 1442 1441 1441 1441 1440 1440 1440 1440 1440 1440 1440 1441 1442 1443 1445 1447 1450 1452 1454 1456 1458 1460 1462 1464 1466 1468 1470 1472 1474 1477 1479 1480 1483 1485 1487 1489 1491
1459 1456 1454 1451 1448 1446 1445 1444 1443 1443 1442 1441 1440 1440 1439 1439 1439 1440 1440 1441 1443 1445 1446 1448 1449 1451 1453 1454 1456 1457 1459 1461 1463 1465 1467 1469 1472 1474 1475 1478 1480 1482 1484
1462 1459 1457 1454 1452 1450 1448 1447 1446 1445 1444 1442 1441 1440 1439 1439 1439 1439 1439 1440 1440 1441 1442 1443 1444 1446 1448 1449 1450 1451 1453 1454 1457 1459 1461 1462 1464 1467 1468 1471 1473 1475 1478
1465 1462 1460 1458 1456 1453 1451 1450 1448 1446 1445 1444 1442 1440 1439 1438 1438 1438 1438 1438 1438 1438 1439 1439 1440 1441 1442 1443 1444 1445 1446 1448 1450 1452 1454 1455 1457 1460 1462 1464 1466 1468 1471
1467 1465 1462 1460 1458 1456 1454 1452 1450 1448 1446 1444 1442 1441 1440 1438 1437 1437 1436 1436 1435 1435 1435 1436 1436 1437 1437 1438 1438 1439 1440 1442 1443 1445 1447 1449 1451 1453 1456 1457 1459 1462 1464
1468 1466 1464 1462 1460 1458 1456 1454 1452 1450 1447 1445 1443 1441 1440 1438 1436 1435 1434 1434 1433 1432 1432 1432 1432 1432 1432 1433 1433 1434 1435 1436 1437 1439 1441 1443 1445 1447 1449 1451 1453 1455 1457
1469 1468 1466 1464 1461 1459 1457 1455 1452 1450 1448 1445 1443 1441 1439 1437 1435 1434 1432 1431 1430 1429 1428 1428 1428 1427 1427 1428 1428 1428 1429 1430 1431 1433 1435 1437 1439 1441 1442 1444 1446 1449 1451
1470 1468 1467 1465 1463 1460 1458 1455 1453 1450 1448 1445 1442 1440 1438 1436 1434 1432 1430 1428 1427 1426 1425 1424 1423 1422 1422 1422 1422 1422 1423 1424 1425 1427 1428 1430 1432 1434 1436 1438 1440 1442 1445
1471 1469 1467 1465 1463 1460 1458 1455 1453 1450 1447 1444 1442 1439 1437 1434 1432 1429 1427 1425 1424 1422 1421 1420 1418 1417 1417 1417 1416 1417 1417 1417 1418 1420 1421 1423 1425 1427 1430 1432 1434 1436 1438
1470 1468 1466 1464 1461 1459 1457 1454 1451 1449 1446 1443 1440 1438 1435 1432 1430 1427 1425 1422 1420 1418 1417 1415 1414 1413 1412 1411 1411 1411 1411 1411 1412 1413 1415 1417 1419 1421 1423 1425 1427 1429 1432
1469 1467 1465 1462 1460 1457 1455 1452 1449 1447 1444 1441 1438 1435 1432 1430 1427 1424 1422 1419 1416 1414 1412 1410 1409 1408 1407 1406 1406 1406 1406 1406 1406 1407 1408 1410 1412 1414 1417 1419 1421 1423 1426
1467 1465 1463 1460 1458 1455 1452 1449 1447 1444 1441 1438 1435 1432 1429 1426 1423 1420 1417 1415 1412 1409 1407 1405 1403 1402 1402 1401 1400 1400 1400 1400 1400 1401 1402 1404 1406 1408 1410 1412 1414 1417 1419
1464 1462 1460 1458 1455 1453 1450 1446 1444 1440 1437 1434 1431 1428 1425 1422 1419 1416 1412 1410 1407 1405 1402 1400 1398 1396 1396 1395 1394 1394 1394 1394 1394 1395 1396 1398 1399 1401 1403 1405 1408 1410 1412
1462 1460 1457 1455 1452 1450 1447 1444 1441 1437 1434 1430 1427 1424 1420 1417 1414 1411 1408 1405 1402 1400 1397 1395 1393 1391 1390 1389 1389 1388 1388 1388 1388 1389 1390 1391 1392 1394 1396 1399 1401 1404 1406
1459 1457 1454 1451 1449 1446 1443 1440 1437 1433 1430 1426 1423 1419 1416 1412 1409 1406 1403 1400 1398 1396 1393 1390 1388 1386 1384 1384 1384 1383 1382 1382 1383 1383 1384 1384 1386 1387 1390 1392 1395 1398 1400
1455 1453 1451 1448 1445 1442 1439 1436 1433 1430 1426 1422 1418 1414 1411 1407 1404 1400 1397 1394 1393 1390 1387 1385 1383 1381 1379 1378 1377 1377 1376 1376 1377 1377 1377 1378 1379 1381 1383 1386 1389 1392 1394